1532145600.55,54242,17.94,73990.3,3.29,-20.93,-22.41,0,*7D
1532145601.78,54243,17.94,73994.0,3.29,-20.93,-22.47,0,*7A
1532145603.03,54244,17.94,73992.3,3.27,-20.99,-22.63,0,*7F
1532145604.25,54245,17.94,73992.3,3.31,-20.89,-22.41,0,*78
1532145605.45,54246,17.94,73990.0,3.29,-20.73,-22.27,0,*77
1532145606.65,54247,17.94,73988.5,3.29,-20.69,-22.27,0,*7D
1532145607.89,54248,17.94,73988.8,3.27,-20.63,-22.21,0,*70
1532145609.13,54249,17.94,73990.8,3.29,-20.59,-22.17,0,*73
1532145610.35,54250,17.94,73992.5,3.27,-20.63,-22.37,0,*7E
1532145611.62,54251,17.94,73990.3,3.27,-20.49,-22.21,0,*70
1532145612.87,54252,17.94,73990.5,3.27,-20.49,-22.07,0,*77
1532145614.08,54253,17.94,73984.5,3.29,-20.29,-21.97,0,*74
1532145615.32,54254,17.94,73986.3,3.29,-20.15,-21.97,0,*7C
1532145616.52,54255,17.94,73982.5,3.29,-20.29,-22.03,0,*7C
1532145617.72,54256,17.94,73984.3,3.29,-20.25,-22.11,0,*70
1532145618.95,54257,17.94,73986.0,3.29,-20.39,-22.31,0,*7E
1532145620.15,54258,17.94,73986.8,3.29,-20.43,-22.27,0,*7B
1532145621.36,54259,17.94,73988.5,3.29,-20.39,-22.27,0,*77
1532145622.6,54260,17.94,73990.3,3.27,-20.15,-22.03,0,*7B
1532145623.79,54261,17.94,73990.5,3.29,-20.09,-22.03,0,*79
1532145625.0,54262,17.94,73992.0,3.29,-19.99,-22.03,0,*79
1532145626.21,54263,17.94,73990.3,3.29,-20.09,-21.97,0,*75
1532145627.44,54264,17.94,73986.8,3.29,-19.99,-21.97,0,*71
1532145628.64,54265,17.94,73990.3,3.29,-20.09,-22.03,0,*7D
1532145629.88,54266,17.94,73988.5,3.27,-20.05,-22.17,0,*79
1532145631.11,54267,17.94,73986.0,3.29,-19.99,-22.17,0,*79
1532145632.32,54268,17.94,73990.8,3.29,-19.91,-22.03,0,*7B
1532145633.51,54269,17.94,73990.0,3.29,-20.09,-22.11,0,*72
1532145634.74,54270,17.94,73988.3,3.29,-19.99,-22.17,0,*7F
1532145636.0,54271,17.94,73990.5,3.31,-19.99,-22.17,0,*77
1532145637.24,54272,17.94,73994.5,3.31,-20.09,-22.31,0,*73
1532145638.48,54273,17.94,73994.0,3.31,-20.15,-22.27,0,*78
1532145639.68,54274,17.94,73994.0,3.29,-20.25,-22.41,0,*75
1532145640.9,54275,17.94,73994.8,3.29,-20.29,-22.47,0,*7E
1532145642.09,54276,17.94,73994.0,3.29,-20.29,-22.41,0,*7B
1532145643.28,54277,17.94,73996.3,3.29,-20.29,-22.57,0,*7D
1532145644.47,54278,17.94,73994.0,3.29,-20.29,-22.57,0,*72
1532145645.71,54279,17.94,73994.5,3.27,-20.35,-22.67,0,*73
1532145646.93,54280,17.94,73994.8,3.27,-20.29,-22.53,0,*7F
1532145648.15,54281,17.94,73994.5,3.27,-20.43,-22.63,0,*71
1532145649.4,54282,17.94,73994.0,3.27,-20.35,-22.63,0,*73
1532145650.61,54283,17.94,73988.8,3.27,-20.29,-22.53,0,*7C
1532145651.82,54284,17.94,73990.8,3.27,-20.29,-22.53,0,*7B
1532145653.01,54285,17.94,73994.8,3.25,-20.29,-22.63,0,*7B
1532145654.23,54286,17.94,73996.3,3.25,-20.29,-22.47,0,*7E
1532145655.42,54287,17.94,73996.0,3.25,-20.29,-22.53,0,*7A
1532145656.63,54288,17.94,73998.5,3.25,-20.19,-22.53,0,*76
1532145657.82,54289,17.94,73998.3,3.25,-20.29,-22.53,0,*74
1532145659.04,54290,17.94,73992.5,3.25,-20.35,-22.53,0,*71
1532145660.26,54291,17.94,73994.5,3.21,-20.09,-22.17,0,*7B
1532145661.48,54292,17.94,73992.5,3.21,-20.19,-22.37,0,*7B
1532145662.69,54293,17.94,73998.8,3.25,-19.85,-22.07,0,*72
1532145663.91,54294,17.94,73994.0,3.25,-19.85,-22.03,0,*71
1532145665.11,54295,17.94,73994.5,3.21,-19.75,-21.93,0,*71
1532145666.34,54296,17.94,73988.3,3.25,-19.71,-21.87,0,*77
1532145667.54,54297,17.94,73990.3,3.25,-19.71,-21.93,0,*73
1532145668.76,54298,17.94,73986.0,3.25,-19.85,-22.03,0,*7D
1532145669.97,54299,17.94,73984.5,3.25,-19.81,-22.03,0,*78
1532145671.19,54300,17.94,73990.8,3.25,-19.85,-22.07,0,*79
1532145672.4,54301,17.94,73990.8,3.25,-20.05,-22.21,0,*7E
1532145673.64,54302,17.94,73990.8,3.25,-20.19,-22.21,0,*70
1532145674.82,54303,17.94,73994.8,3.25,-20.29,-22.37,0,*75
1532145676.03,54304,17.94,73996.0,3.25,-20.35,-22.37,0,*7F
1532145677.24,54305,17.94,73996.0,3.25,-20.35,-22.37,0,*7E
1532145678.44,54306,17.94,73998.3,3.25,-20.43,-22.37,0,*7C
1532145679.63,54307,17.94,73998.8,3.25,-20.39,-22.41,0,*71
1532145680.87,54308,17.94,74000.0,3.25,-20.35,-22.31,0,*75
1532145682.09,54309,17.94,74000.5,3.21,-20.35,-22.37,0,*76
1532145683.3,54310,17.94,73996.8,3.25,-20.15,-22.07,0,*7B
1532145684.52,54311,17.94,73992.8,3.21,-20.25,-22.21,0,*79
1532145685.76,54312,17.94,73992.8,3.25,-20.35,-22.21,0,*7F
1532145687.0,54313,17.94,73992.5,3.21,-20.35,-22.21,0,*7A
1532145688.22,54314,17.94,73988.8,3.21,-20.35,-22.27,0,*7B
1532145689.43,54315,17.94,73986.5,3.25,-20.35,-22.37,0,*7F
1532145690.62,54316,17.94,73992.3,3.21,-20.09,-22.07,0,*74
1532145691.82,54317,17.94,73992.3,3.21,-19.99,-22.07,0,*76
1532145693.02,54318,17.94,73990.0,3.21,-19.99,-21.93,0,*77
1532145694.25,54319,17.94,73996.3,3.21,-19.99,-21.97,0,*72
1532145695.49,54320,17.94,73998.5,3.25,-19.85,-21.87,0,*70
1532145696.69,54321,17.94,73994.0,3.21,-19.91,-21.73,0,*7B
1532145697.94,54322,17.94,73988.8,3.25,-19.65,-21.67,0,*72
1532145699.19,54323,17.94,73992.8,3.25,-19.57,-21.53,0,*75
1532145700.38,54324,17.94,73990.0,3.25,-19.71,-21.73,0,*74
1532145701.59,54325,17.94,73992.0,3.25,-19.81,-21.73,0,*7A
1532145702.83,54326,17.94,73996.8,3.25,-19.85,-21.83,0,*72
1532145704.06,54327,17.94,73994.3,3.21,-19.99,-21.97,0,*7F
1532145705.26,54328,17.94,73990.3,3.25,-19.95,-21.93,0,*7C
1532145706.5,54329,17.94,73992.5,3.21,-19.81,-21.87,0,*79
1532145707.72,54330,17.94,73988.3,3.21,-20.05,-21.97,0,*76
1532145708.92,54331,17.94,73992.0,3.25,-19.95,-21.93,0,*74
1532145710.12,54332,17.94,73994.3,3.25,-19.95,-21.93,0,*77
1532145711.31,54333,17.94,73994.0,3.25,-20.05,-22.03,0,*7F
1532145712.5,54334,17.94,73990.8,3.25,-20.05,-21.93,0,*72
1532145713.72,54335,17.94,73990.8,3.21,-19.85,-21.77,0,*7F
1532145714.96,54336,17.94,73994.3,3.25,-19.81,-21.83,0,*77
1532145716.2,54337,17.94,73992.3,3.25,-19.85,-21.83,0,*72
1532145717.44,54338,17.94,73990.0,3.25,-19.85,-21.83,0,*7D
1532145718.69,54339,17.94,73992.8,3.25,-19.81,-21.87,0,*7C
1532145719.9,54340,17.94,73994.0,3.25,-19.85,-21.93,0,*73
1532145721.1,54341,17.94,73994.8,3.25,-19.99,-21.93,0,*7F
1532145722.3,54342,17.94,73992.5,3.25,-19.99,-21.93,0,*7C
1532145723.5,54343,17.94,73992.3,3.25,-19.99,-21.93,0,*7D
1532145724.72,54344,17.94,73988.5,3.25,-19.85,-22.03,0,*7D
1532145725.96,54345,17.94,73992.5,3.21,-19.85,-21.97,0,*76
1532145727.2,54346,17.94,73984.0,3.25,-19.81,-21.87,0,*74
1532145728.45,54347,17.94,73990.5,3.25,-19.65,-21.83,0,*7B
1532145729.68,54348,17.94,73990.8,3.25,-19.71,-21.83,0,*71
1532145730.91,54349,17.94,73988.3,3.25,-19.71,-21.87,0,*74
1532145732.15,54350,17.94,73986.8,3.25,-19.65,-21.83,0,*7D
1532145733.39,54351,17.94,73984.5,3.25,-19.41,-21.57,0,*73
1532145734.65,54352,17.94,73982.3,3.25,-19.57,-21.83,0,*7E
1532145735.87,54353,17.94,73984.8,3.27,-19.51,-21.73,0,*74
1532145737.12,54354,17.94,73986.3,3.27,-19.71,-21.87,0,*7A
1532145738.39,54355,17.94,73988.5,3.27,-19.65,-21.83,0,*7A
1532145739.67,54356,17.94,73986.8,3.27,-19.65,-21.83,0,*79
1532145740.92,54357,17.94,73982.3,3.27,-19.57,-21.93,0,*78
1532145742.17,54358,17.94,73988.3,3.27,-19.65,-21.93,0,*76
1532145743.43,54359,17.94,73984.3,3.27,-19.37,-21.67,0,*7B
1532145744.71,54360,17.94,73988.0,3.27,-19.27,-21.67,0,*70
1532145745.99,54361,17.94,73986.8,3.27,-19.23,-21.53,0,*72
1532145747.24,54362,17.94,73986.5,3.27,-18.93,-21.13,0,*7F
1532145748.44,54363,17.94,73980.5,3.29,-18.79,-21.13,0,*74
1532145749.7,54364,17.94,73980.0,3.29,-18.89,-21.23,0,*7F
1532145750.92,54365,17.94,73980.0,3.29,-18.89,-21.39,0,*75
1532145752.2,54366,17.94,73984.0,3.27,-18.89,-21.23,0,*73
1532145753.4,54367,17.94,73982.8,3.29,-18.73,-21.17,0,*7E
1532145754.61,54368,17.94,73982.0,3.29,-18.73,-21.17,0,*71
1532145755.84,54369,17.94,73984.5,3.29,-18.55,-20.89,0,*72
1532145757.11,54370,17.94,73984.3,3.31,-18.55,-21.03,0,*70
1532145758.34,54371,17.94,73986.8,3.31,-18.69,-21.09,0,*74
1532145759.54,54372,17.94,73980.5,3.35,-18.65,-21.09,0,*7F
1532145760.82,54373,17.94,73986.8,3.33,-18.55,-21.03,0,*71
1532145762.04,54374,17.94,73980.0,3.35,-18.59,-21.13,0,*7D
1532145763.27,54375,17.94,73982.0,3.35,-18.59,-21.13,0,*7C
1532145764.48,54376,17.94,73982.5,3.35,-18.79,-21.39,0,*75
1532145765.68,54377,17.94,73982.0,3.35,-18.79,-21.39,0,*74
1532145766.92,54378,17.94,73982.8,3.35,-18.79,-21.27,0,*74
1532145768.12,54379,17.94,73986.8,3.35,-18.79,-21.43,0,*77
1532145769.34,54380,17.94,73982.0,3.37,-18.83,-21.43,0,*76
1532145770.57,54381,17.94,73980.3,3.35,-18.93,-21.43,0,*74
1532145771.77,54382,17.94,73982.0,3.35,-18.83,-21.43,0,*76
1532145773.0,54383,17.94,73982.0,3.35,-18.93,-21.43,0,*76
1532145774.23,54384,17.94,73980.0,3.33,-18.99,-21.63,0,*7F
1532145775.46,54385,17.94,73982.3,3.35,-19.07,-21.57,0,*79
1532145776.69,54386,17.94,73984.8,3.35,-19.07,-21.67,0,*79
1532145777.9,54387,17.94,73980.3,3.35,-19.13,-21.73,0,*78
1532145779.11,54388,17.94,73986.5,3.35,-19.37,-21.77,0,*75
1532145780.37,54389,17.94,73984.8,3.37,-19.27,-21.77,0,*77
1532145781.63,54390,17.94,73984.5,3.35,-19.41,-21.87,0,*72
1532145782.87,54391,17.94,73986.8,3.35,-19.37,-21.87,0,*72
1532145784.11,54392,17.94,73984.0,3.35,-19.37,-21.87,0,*71
1532145785.33,54393,17.94,73984.5,3.35,-19.41,-21.77,0,*7E
1532145786.59,54394,17.94,73984.8,3.35,-19.41,-21.87,0,*76
1532145787.85,54395,17.94,73988.5,3.33,-19.41,-21.93,0,*74
1532145789.06,54396,17.94,73988.3,3.35,-19.37,-21.77,0,*7A
1532145790.29,54397,17.94,73990.0,3.35,-19.27,-21.73,0,*7E
1532145791.52,54398,17.94,73994.0,3.35,-19.23,-21.73,0,*75
1532145792.77,54399,17.94,73990.5,3.33,-19.41,-21.77,0,*72
1532145794.01,54400,17.94,73992.3,3.33,-19.47,-21.77,0,*73
1532145795.26,54401,17.94,73990.0,3.33,-19.47,-21.83,0,*79
1532145796.54,54402,17.94,73988.8,3.33,-19.41,-21.83,0,*7C
1532145797.83,54403,17.94,73992.3,3.33,-19.57,-21.83,0,*7A
1532145799.09,54404,17.94,73988.5,3.33,-19.57,-21.77,0,*76
1532145800.35,54405,17.94,73990.5,3.33,-19.41,-21.77,0,*70
1532145801.63,54406,17.94,73992.3,3.33,-19.61,-21.97,0,*7F
1532145802.85,54407,17.94,73994.0,3.35,-19.85,-22.03,0,*7C
1532145804.08,54408,17.94,73990.5,3.35,-19.81,-21.93,0,*7D
1532145805.31,54409,17.94,73990.3,3.33,-19.95,-22.11,0,*76
1532145806.54,54410,17.94,73990.3,3.33,-19.95,-22.11,0,*7E
1532145807.77,54411,17.94,73994.5,3.33,-19.95,-22.07,0,*78
1532145809.02,54412,17.94,73992.8,3.33,-20.05,-22.21,0,*7C
1532145810.24,54413,17.94,73990.0,3.33,-20.05,-22.11,0,*7E
1532145811.49,54414,17.94,73990.3,3.31,-20.09,-22.17,0,*71
1532145812.71,54415,17.94,73988.3,3.31,-19.99,-22.11,0,*75
1532145813.94,54416,17.94,73990.5,3.31,-19.99,-22.11,0,*76
1532145815.18,54417,17.94,73988.0,3.31,-20.09,-22.17,0,*72
1532145816.42,54418,17.94,73994.3,3.31,-20.15,-22.11,0,*76
1532145817.67,54419,17.94,73990.5,3.31,-19.99,-21.97,0,*74
1532145818.9,54420,17.94,73986.5,3.33,-19.95,-21.93,0,*74
1532145820.14,54421,17.94,73986.3,3.31,-20.09,-21.97,0,*7C
1532145821.38,54422,17.94,73986.8,3.33,-19.95,-21.93,0,*76
1532145822.62,54423,17.94,73992.8,3.31,-19.99,-21.97,0,*7D
1532145823.9,54424,17.94,73996.5,3.33,-19.85,-21.83,0,*70
1532145825.15,54425,17.94,73994.0,3.31,-19.95,-21.83,0,*72
1532145826.39,54426,17.94,73994.5,3.31,-20.09,-21.83,0,*7E
1532145827.64,54427,17.94,73994.0,3.31,-20.09,-21.83,0,*7F
1532145828.86,54428,17.94,73988.5,3.33,-20.05,-21.77,0,*75
1532145830.11,54429,17.94,73988.5,3.33,-19.95,-21.57,0,*75
1532145831.35,54430,17.94,73992.5,3.33,-19.95,-21.63,0,*7A
1532145832.6,54431,17.94,73994.8,3.33,-19.95,-21.57,0,*7C
1532145833.82,54432,17.94,73988.3,3.33,-20.09,-21.73,0,*76
1532145835.04,54433,17.94,73992.0,3.35,-19.99,-21.57,0,*74
1532145836.26,54434,17.94,73988.3,3.35,-20.05,-21.57,0,*7C
1532145837.48,54435,17.94,73990.5,3.35,-20.05,-21.53,0,*79
1532145838.73,54436,17.94,73990.3,3.35,-20.15,-21.53,0,*7B
1532145840.0,54437,17.94,73994.0,3.37,-20.15,-21.57,0,*7C
1532145841.25,54438,17.94,73992.3,3.35,-20.15,-21.67,0,*72
1532145842.5,54439,17.94,73992.8,3.37,-20.29,-21.67,0,*7E
1532145843.71,54440,17.94,73990.8,3.35,-20.35,-21.73,0,*7A
1532145844.94,54441,17.94,73992.5,3.37,-20.43,-21.77,0,*7C
1532145846.18,54442,17.94,73994.5,3.37,-20.43,-21.77,0,*7F
1532145847.43,54443,17.94,73994.5,3.37,-20.49,-21.77,0,*74
1532145848.71,54444,17.94,73994.3,3.33,-20.53,-21.83,0,*77
1532145849.94,54445,17.94,73992.8,3.33,-20.39,-21.63,0,*74
1532145851.17,54446,17.94,73986.3,3.33,-20.39,-21.63,0,*77
1532145852.4,54447,17.94,73988.0,3.35,-20.49,-21.77,0,*72
1532145853.64,54448,17.94,73992.0,3.35,-20.59,-21.87,0,*73
1532145854.84,54449,17.94,73988.3,3.35,-20.59,-21.77,0,*7D
1532145856.1,54450,17.94,73988.3,3.33,-20.63,-21.83,0,*71
1532145857.32,54451,17.94,73988.8,3.35,-20.49,-21.73,0,*71
1532145858.56,54452,17.94,73994.0,3.35,-20.59,-21.67,0,*76
1532145859.76,54453,17.94,73994.8,3.35,-20.73,-21.77,0,*7E
1532145861.02,54454,17.94,73990.0,3.33,-20.69,-21.83,0,*7F
1532145862.23,54455,17.94,73984.8,3.35,-20.59,-21.77,0,*70
1532145863.45,54456,17.94,73992.5,3.35,-20.73,-21.87,0,*74
1532145864.71,54457,17.94,73990.3,3.35,-20.79,-21.87,0,*7F
1532145865.94,54458,17.94,73990.8,3.35,-20.73,-21.87,0,*7A
1532145867.19,54459,17.94,73984.0,3.35,-20.79,-21.87,0,*71
1532145868.45,54460,17.94,73984.5,3.35,-20.79,-21.87,0,*7B
1532145869.7,54461,17.94,73986.8,3.35,-20.83,-21.87,0,*7F
1532145870.93,54462,17.94,73988.0,3.35,-20.79,-21.93,0,*7C
1532145872.16,54463,17.94,73986.5,3.35,-20.83,-21.93,0,*78
1532145873.42,54464,17.94,73986.5,3.35,-20.79,-21.87,0,*7F
1532145874.67,54465,17.94,73988.8,3.33,-20.79,-21.93,0,*7D
1532145875.9,54466,17.94,73990.3,3.35,-20.79,-21.77,0,*72
1532145877.12,54467,17.94,73986.0,3.35,-20.79,-21.77,0,*73
1532145878.33,54468,17.94,73988.3,3.35,-20.73,-21.77,0,*76
1532145879.55,54469,17.94,73984.5,3.35,-20.79,-21.77,0,*7D
1532145880.78,54470,17.94,73984.0,3.35,-20.79,-21.77,0,*75
1532145882.01,54471,17.94,73986.3,3.35,-20.83,-21.77,0,*71
1532145883.27,54472,17.94,73984.3,3.33,-20.89,-21.83,0,*75
1532145884.5,54473,17.94,73986.3,3.35,-20.83,-21.77,0,*73
1532145885.76,54474,17.94,73986.0,3.35,-20.83,-21.87,0,*7B
1532145887.01,54475,17.94,73986.3,3.35,-20.83,-21.87,0,*7A
1532145888.27,54476,17.94,73984.3,3.35,-20.83,-21.87,0,*79
1532145889.5,54477,17.94,73984.5,3.35,-20.99,-21.93,0,*76
1532145890.7,54478,17.94,73982.5,3.35,-21.09,-21.93,0,*71
1532145891.96,54479,17.94,73982.3,3.33,-21.03,-22.07,0,*72
1532145893.21,54480,17.94,73980.0,3.33,-20.99,-22.07,0,*76
1532145894.49,54481,17.94,73982.0,3.33,-20.99,-21.97,0,*7D
1532145895.77,54482,17.94,73982.5,3.33,-21.03,-21.97,0,*7C
1532145897.03,54483,17.94,73976.8,3.33,-21.03,-22.07,0,*77
1532145898.28,54484,17.94,73980.0,3.31,-21.23,-22.11,0,*77
1532145899.51,54485,17.94,73980.8,3.33,-21.13,-22.07,0,*70
1532145900.74,54486,17.94,73986.0,3.33,-21.17,-22.11,0,*70
1532145901.99,54487,17.94,73984.3,3.33,-21.13,-22.21,0,*76
1532145903.22,54488,17.94,73984.8,3.33,-21.13,-22.27,0,*7F
1532145904.47,54489,17.94,73984.5,3.33,-21.17,-22.21,0,*7C
1532145905.73,54490,17.94,73986.8,3.33,-21.13,-22.21,0,*70
1532145906.98,54491,17.94,73990.8,3.33,-21.13,-22.21,0,*71
1532145908.23,54492,17.94,73988.0,3.33,-21.27,-22.41,0,*73
1532145909.48,54493,17.94,73992.5,3.33,-21.27,-22.41,0,*72
1532145910.75,54494,17.94,73990.3,3.31,-21.33,-22.31,0,*75
1532145912.0,54495,17.94,73992.8,3.33,-21.27,-22.41,0,*74
1532145913.26,54496,17.94,73988.3,3.31,-21.39,-22.47,0,*7C
1532145914.51,54497,17.94,73990.3,3.33,-21.33,-22.37,0,*72
1532145915.76,54498,17.94,73988.5,3.33,-21.33,-22.53,0,*7F
1532145916.98,54499,17.94,73988.8,3.31,-21.39,-22.41,0,*75
1532145918.26,54500,17.94,73988.5,3.33,-21.33,-22.47,0,*7A
1532145919.54,54501,17.94,73988.3,3.31,-21.23,-22.31,0,*79
1532145920.76,54502,17.94,73988.3,3.31,-21.09,-22.27,0,*75
1532145922.01,54503,17.94,73990.5,3.31,-21.09,-22.31,0,*73
1532145923.28,54504,17.94,73990.0,3.31,-21.03,-22.31,0,*7E
1532145924.56,54505,17.94,73998.5,3.31,-21.03,-22.17,0,*7B
1532145925.81,54506,17.94,73994.5,3.31,-20.89,-22.17,0,*7B
1532145927.07,54507,17.94,73996.3,3.33,-20.79,-22.11,0,*71
1532145928.34,54508,17.94,73994.5,3.31,-20.83,-22.17,0,*7F
1532145929.59,54509,17.94,73988.5,3.31,-20.83,-22.27,0,*7D
1532145930.84,54510,17.94,73992.3,3.33,-20.69,-22.21,0,*75
1532145932.12,54511,17.94,73990.0,3.33,-20.79,-22.21,0,*75
1532145933.39,54512,17.94,73994.0,3.31,-20.83,-22.31,0,*70
1532145934.67,54513,17.94,73988.3,3.31,-20.83,-22.31,0,*71
1532145935.9,54514,17.94,73992.0,3.31,-20.59,-22.27,0,*76
1532145937.12,54515,17.94,73992.5,3.31,-20.69,-22.27,0,*74
1532145938.37,54516,17.94,73992.5,3.31,-20.59,-22.31,0,*73
1532145939.59,54517,17.94,73994.5,3.31,-20.69,-22.41,0,*76
1532145940.84,54518,17.94,73990.5,3.31,-20.69,-22.47,0,*7F
1532145942.06,54519,17.94,73990.3,3.31,-20.59,-22.41,0,*7B
1532145943.27,54520,17.94,73994.5,3.29,-20.59,-22.27,0,*78
1532145944.5,54521,17.94,73990.5,3.29,-20.53,-22.27,0,*73
1532145945.7,54522,17.94,73984.5,3.29,-20.43,-22.27,0,*71
1532145946.9,54523,17.94,73984.3,3.29,-20.25,-22.11,0,*75
1532145948.15,54524,17.94,73994.0,3.31,-20.25,-22.17,0,*7D
1532145949.37,54525,17.94,73992.8,3.31,-19.99,-22.03,0,*74
1532145950.59,54526,17.94,73990.3,3.31,-20.09,-22.03,0,*74
1532145951.82,54527,17.94,73988.0,3.29,-19.95,-21.83,0,*78
1532145953.05,54528,17.94,73986.0,3.29,-19.91,-21.87,0,*77
1532145954.29,54529,17.94,73988.5,3.31,-19.91,-21.97,0,*7E
1532145955.54,54530,17.94,73988.3,3.31,-20.25,-22.17,0,*78
1532145956.78,54531,17.94,73986.5,3.31,-20.15,-22.11,0,*7C
1532145958.03,54532,17.94,73982.0,3.31,-20.09,-22.17,0,*74
1532145959.3,54533,17.94,73982.3,3.31,-20.15,-22.17,0,*78
1532145960.53,54534,17.94,73984.5,3.31,-19.99,-22.11,0,*77
1532145961.77,54535,17.94,73988.0,3.31,-20.09,-22.17,0,*73
1532145962.98,54536,17.94,73988.3,3.31,-20.25,-22.41,0,*7D
1532145964.23,54537,17.94,73990.8,3.33,-20.19,-22.37,0,*70
1532145965.48,54538,17.94,73992.3,3.33,-20.19,-22.37,0,*7F
1532145966.73,54539,17.94,73992.3,3.31,-20.29,-22.47,0,*78
1532145967.94,54540,17.94,73990.5,3.31,-20.29,-22.57,0,*77
1532145969.15,54541,17.94,73988.0,3.31,-20.25,-22.41,0,*7D
1532145970.43,54542,17.94,73990.3,3.31,-20.15,-22.47,0,*7B
1532145971.67,54543,17.94,73992.3,3.31,-20.29,-22.47,0,*75
1532145972.86,54544,17.94,73992.5,3.29,-20.29,-22.57,0,*7A
1532145974.07,54545,17.94,73996.3,3.29,-20.39,-22.57,0,*7A
1532145975.26,54546,17.94,73998.5,3.29,-20.29,-22.57,0,*78
1532145976.45,54547,17.94,73996.8,3.29,-20.29,-22.63,0,*7E
1532145977.68,54548,17.94,73994.3,3.31,-20.39,-22.63,0,*79
1532145978.87,54549,17.94,73992.8,3.29,-20.29,-22.57,0,*77
1532145980.1,54550,17.94,73996.3,3.29,-20.25,-22.47,0,*72
1532145981.32,54551,17.94,73992.3,3.29,-20.15,-22.41,0,*76
1532145982.56,54552,17.94,73994.5,3.27,-20.15,-22.37,0,*7A
1532145983.8,54553,17.94,73996.8,3.27,-20.35,-22.53,0,*7B
1532145985.02,54554,17.94,74002.0,3.29,-20.19,-22.53,0,*7C
1532145986.29,54555,17.94,73998.5,3.27,-20.19,-22.47,0,*76
1532145987.54,54556,17.94,73992.8,3.27,-20.05,-22.31,0,*79
1532145988.78,54557,17.94,73994.3,3.27,-19.81,-22.03,0,*7F
1532145989.99,54558,17.94,73994.5,3.29,-19.81,-22.11,0,*7D
1532145991.21,54559,17.94,73988.3,3.27,-19.99,-22.07,0,*7C
1532145992.47,54560,17.94,73990.8,3.27,-19.99,-22.17,0,*77
1532145993.7,54561,17.94,73988.8,3.29,-19.95,-22.17,0,*74
1532145994.94,54562,17.94,73990.0,3.29,-19.99,-22.17,0,*7B
1532145996.17,54563,17.94,73984.0,3.29,-19.99,-22.17,0,*7A
1532145997.37,54564,17.94,73988.8,3.29,-19.99,-22.03,0,*78
1532145998.61,54565,17.94,73990.3,3.27,-20.05,-22.21,0,*78
1532145999.83,54566,17.94,73988.5,3.27,-20.09,-22.27,0,*71
1532146001.05,54567,17.94,73990.3,3.27,-19.99,-22.03,0,*75
1532146002.26,54568,17.94,73990.3,3.27,-20.05,-22.07,0,*71
1532146003.49,54569,17.94,73990.5,3.29,-20.09,-22.17,0,*73
1532146004.69,54570,17.94,73988.0,3.29,-19.99,-22.11,0,*7E
1532146005.91,54571,17.94,73984.5,3.29,-19.91,-21.97,0,*7A
1532146007.14,54572,17.94,73986.3,3.29,-19.95,-21.97,0,*7D
1532146008.37,54573,17.94,73982.8,3.29,-19.91,-21.97,0,*78
1532146009.59,54574,17.94,73984.5,3.29,-20.09,-22.17,0,*7F
1532146010.81,54575,17.94,73982.5,3.29,-20.15,-22.03,0,*76
1532146012.04,54576,17.94,73984.0,3.29,-19.99,-21.97,0,*75
1532146013.24,54577,17.94,73984.5,3.29,-19.99,-22.03,0,*7A
1532146014.48,54578,17.94,73982.5,3.29,-19.95,-21.87,0,*76
1532146015.71,54579,17.94,73984.3,3.29,-19.99,-21.87,0,*7B
1532146016.94,54580,17.94,73980.8,3.29,-19.95,-21.87,0,*71
1532146018.17,54581,17.94,73980.8,3.29,-19.91,-21.83,0,*70
1532146019.39,54582,17.94,73980.8,3.31,-20.25,-22.03,0,*74
1532146020.61,54583,17.94,73988.5,3.31,-20.39,-22.27,0,*7E
1532146021.87,54584,17.94,73992.5,3.31,-20.43,-22.31,0,*73
1532146023.12,54585,17.94,73992.3,3.31,-20.43,-22.31,0,*72
1532146024.34,54586,17.94,73992.3,3.29,-20.29,-22.17,0,*70
1532146025.55,54587,17.94,73990.5,3.29,-20.43,-22.27,0,*7E
1532146026.77,54588,17.94,73988.3,3.31,-20.25,-22.03,0,*7E
1532146027.99,54589,17.94,73990.3,3.31,-20.39,-22.03,0,*72
1532146029.26,54590,17.94,73990.3,3.33,-20.35,-21.97,0,*7A
1532146030.49,54591,17.94,73986.8,3.29,-20.53,-22.11,0,*7D
1532146031.76,54592,17.94,73988.8,3.31,-20.53,-22.17,0,*71
1532146033.04,54593,17.94,73992.0,3.31,-20.53,-22.17,0,*70
1532146034.27,54594,17.94,73994.8,3.31,-20.59,-22.11,0,*7B
1532146035.55,54595,17.94,73992.0,3.33,-20.53,-22.21,0,*71
1532146036.77,54596,17.94,73990.0,3.31,-20.59,-22.11,0,*79
1532146038.0,54597,17.94,73988.8,3.33,-20.63,-22.07,0,*74
1532146039.26,54598,17.94,73994.0,3.31,-20.59,-22.17,0,*71
1532146040.48,54599,17.94,73990.3,3.31,-20.89,-22.41,0,*7E
1532146041.72,54600,17.94,73986.8,3.31,-20.73,-22.31,0,*7F
1532146042.98,54601,17.94,73988.3,3.31,-20.89,-22.31,0,*7B
1532146044.23,54602,17.94,73988.0,3.31,-20.93,-22.31,0,*73
1532146045.45,54603,17.94,73990.3,3.31,-20.89,-22.27,0,*7E
1532146046.67,54604,17.94,73994.5,3.31,-20.93,-22.27,0,*72
1532146047.89,54605,17.94,73994.8,3.31,-20.93,-22.27,0,*73
1532146049.11,54606,17.94,73992.5,3.31,-20.73,-22.11,0,*7B
1532146050.36,54607,17.94,73988.0,3.33,-20.73,-21.97,0,*75
1532146051.61,54608,17.94,73990.3,3.31,-20.83,-22.11,0,*7A
1532146052.83,54609,17.94,73988.8,3.31,-20.93,-22.27,0,*7F
1532146054.08,54610,17.94,73988.5,3.31,-20.93,-22.17,0,*74
1532146055.3,54611,17.94,73984.8,3.31,-20.93,-22.03,0,*70
1532146056.57,54612,17.94,73986.8,3.31,-20.83,-21.97,0,*7C
1532146057.79,54613,17.94,73988.0,3.31,-20.93,-22.11,0,*71
1532146059.07,54614,17.94,73992.5,3.31,-21.03,-22.17,0,*78
1532146060.32,54615,17.94,73992.5,3.31,-20.89,-21.97,0,*71
1532146061.57,54616,17.94,73992.5,3.31,-20.89,-21.97,0,*72
1532146062.81,54617,17.94,73986.3,3.31,-20.69,-21.83,0,*78
1532146064.06,54618,17.94,73990.3,3.31,-20.69,-21.83,0,*77
1532146065.33,54619,17.94,73988.0,3.31,-20.83,-21.83,0,*72
1532146066.6,54620,17.94,73988.5,3.31,-21.03,-21.97,0,*74
1532146067.85,54621,17.94,73988.8,3.31,-21.09,-22.17,0,*74
1532146069.1,54622,17.94,73984.5,3.31,-21.03,-22.11,0,*7B
1532146070.36,54623,17.94,73988.8,3.33,-21.03,-22.03,0,*7B
1532146071.6,54624,17.94,73988.8,3.31,-21.03,-22.03,0,*7E
1532146072.86,54625,17.94,73988.5,3.33,-20.79,-21.77,0,*71
1532146074.12,54626,17.94,73990.3,3.33,-20.89,-21.83,0,*76
1532146075.37,54627,17.94,73986.3,3.31,-21.17,-22.17,0,*7D
1532146076.63,54628,17.94,73984.3,3.33,-20.99,-21.93,0,*78
1532146077.91,54629,17.94,73986.8,3.33,-21.03,-21.97,0,*7F
1532146079.14,54630,17.94,73984.5,3.33,-21.17,-22.11,0,*7F
1532146080.38,54631,17.94,73984.0,3.31,-21.33,-22.27,0,*7F
1532146081.63,54632,17.94,73988.0,3.31,-21.39,-22.17,0,*75
1532146082.91,54633,17.94,73988.3,3.31,-21.23,-22.17,0,*7F
1532146084.16,54634,17.94,73984.8,3.31,-20.89,-21.87,0,*73
1532146085.39,54635,17.94,73982.0,3.35,-20.49,-21.43,0,*72
1532146086.61,54636,17.94,73984.5,3.31,-20.69,-21.47,0,*73
1532146087.86,54637,17.94,73980.3,3.33,-20.69,-21.57,0,*71
1532146089.09,54638,17.94,73984.8,3.33,-20.63,-21.47,0,*75
1532146090.34,54639,17.94,73986.3,3.33,-20.53,-21.43,0,*73
1532146091.58,54640,17.94,73982.5,3.33,-20.63,-21.47,0,*7A
1532146092.83,54641,17.94,73986.5,3.33,-20.79,-21.63,0,*76
1532146094.08,54642,17.94,73988.8,3.35,-20.79,-21.67,0,*77
1532146095.34,54643,17.94,73986.8,3.35,-20.79,-21.67,0,*76
1532146096.58,54644,17.94,73982.5,3.35,-20.79,-21.57,0,*72
1532146097.85,54645,17.94,73982.3,3.37,-20.79,-21.57,0,*71
1532146099.11,54646,17.94,73978.3,3.35,-20.83,-21.67,0,*76
1532146100.39,54647,17.94,73976.3,3.37,-20.99,-21.87,0,*70
1532146101.62,54648,17.94,73978.3,3.37,-20.93,-21.77,0,*7A